User: anonymous   Login
Location: Unspecified
(0.0000°N, 0.0000°E)
Time: 23:58:17
(UTC+00:00)
Language:

STARLINK-34560 - Orbit

View from above orbital plane
View from above orbital plane
View from above satellite
View from above satellite

Ground track
Ground track

The orbit is defined by the following mean orbital elements,

1 64700U          26145.37969990 +.00000000 +00000-0 +35868-3 0 00003
2 64700  70.0002 121.2471 0003982 265.9741  94.0963 14.98335639    04
Epoch (UTC): 25 May 2026 09:06:46
Eccentricity: 0.0003982
inclination: 70.0002°
perigee height: 569 km
apogee height: 575 km
right ascension of ascending node: 121.2471°
argument of perigee: 265.9741°
revolutions per day: 14.98335639
mean anomaly at epoch: 94.0963°

The dashed part of the orbit path shows where the satellite is in the earth's shadow,  

DLR